• In Deutschland
  • Länderverzeichnis
  • Für 7 Tage
  • Wassertemperatur
  • Satellitenkarten
  • Wetterkarte
  • Widgets
  • user-avatar
    Anmelden

    Stündliche Wetter Baraki Barak

    Heute, 17 August, Donnerstag

    Zeit Temperatur Niederschläge Wind Luftdruck Luftfeuchtigkeit
    00:00 +23°C° 0 mm 2 m/S 597 mmHg 23%
    01:00 +21°C° 0 mm 2 m/S 597 mmHg 23%
    02:00 +22°C° 0 mm 1 m/S 597 mmHg 24%
    03:00 +21°C° 0 mm 1 m/S 596 mmHg 24%
    04:00 +20°C° 0 mm 1 m/S 596 mmHg 24%
    05:00 +19°C° 0 mm 2 m/S 596 mmHg 25%
    06:00 +20°C° 0 mm 2 m/S 596 mmHg 22%
    07:00 +21°C° 0 mm 2 m/S 597 mmHg 20%
    08:00 +23°C° 0 mm 1 m/S 598 mmHg 18%
    09:00 +24°C° 0 mm 1 m/S 598 mmHg 17%
    10:00 +26°C° 0 mm 1 m/S 598 mmHg 15%
    11:00 +27°C° 0 mm 2 m/S 599 mmHg 13%
    12:00 +28°C° 0 mm 2 m/S 599 mmHg 12%
    13:00 +29°C° 0 mm 1 m/S 599 mmHg 12%
    14:00 +29°C° 0 mm 1 m/S 599 mmHg 11%
    15:00 +30°C° 0 mm 2 m/S 599 mmHg 10%
    16:00 +30°C° 0 mm 2 m/S 599 mmHg 10%
    17:00 +30°C° 0 mm 2 m/S 599 mmHg 10%
    18:00 +29°C° 0 mm 2 m/S 599 mmHg 11%
    19:00 +28°C° 0 mm 3 m/S 598 mmHg 12%
    20:00 +27°C° 0 mm 3 m/S 598 mmHg 14%
    21:00 +26°C° 0 mm 3 m/S 598 mmHg 16%
    22:00 +25°C° 0 mm 2 m/S 598 mmHg 17%
    23:00 +24°C° 0 mm 2 m/S 598 mmHg 19%

    Morgen, 18 August, Freitag

    Zeit Temperatur Niederschläge Wind Luftdruck Luftfeuchtigkeit
    00:00 +24°C° 0 mm 2 m/S 598 mmHg 21%
    01:00 +23°C° 0 mm 1 m/S 597 mmHg 22%
    02:00 +22°C° 0 mm 1 m/S 597 mmHg 24%
    03:00 +21°C° 0 mm 1 m/S 597 mmHg 24%
    04:00 +21°C° 0 mm 1 m/S 597 mmHg 24%
    05:00 +20°C° 0 mm 1 m/S 596 mmHg 24%
    06:00 +21°C° 0 mm 1 m/S 597 mmHg 22%
    07:00 +22°C° 0 mm 1 m/S 598 mmHg 19%
    08:00 +23°C° 0 mm 1 m/S 598 mmHg 16%
    09:00 +24°C° 0 mm 1 m/S 599 mmHg 15%
    10:00 +26°C° 0 mm 1 m/S 599 mmHg 13%
    11:00 +27°C° 0 mm 1 m/S 599 mmHg 12%
    12:00 +28°C° 0 mm 1 m/S 599 mmHg 11%
    13:00 +29°C° 0 mm 1 m/S 599 mmHg 10%
    14:00 +30°C° 0 mm 2 m/S 599 mmHg 10%
    15:00 +31°C° 0 mm 2 m/S 599 mmHg 10%
    16:00 +31°C° 0 mm 2 m/S 599 mmHg 9%
    17:00 +31°C° 0 mm 2 m/S 599 mmHg 9%
    18:00 +30°C° 0 mm 2 m/S 599 mmHg 11%
    19:00 +29°C° 0 mm 3 m/S 599 mmHg 13%
    20:00 +28°C° 0 mm 3 m/S 599 mmHg 15%
    21:00 +27°C° 0 mm 2 m/S 599 mmHg 17%
    22:00 +26°C° 0 mm 2 m/S 599 mmHg 20%
    23:00 +25°C° 0 mm 2 m/S 599 mmHg 22%

    übermorgen, 19 August, Samstag

    Zeit Temperatur Niederschläge Wind Luftdruck Luftfeuchtigkeit
    00:00 +24°C° 0 mm 2 m/S 598 mmHg 25%
    01:00 +23°C° 0 mm 1 m/S 598 mmHg 27%
    02:00 +23°C° 0 mm 1 m/S 598 mmHg 29%
    03:00 +22°C° 0 mm 1 m/S 598 mmHg 30%
    04:00 +22°C° 0 mm 1 m/S 597 mmHg 31%
    05:00 +21°C° 0 mm 1 m/S 597 mmHg 32%
    06:00 +22°C° 0 mm 1 m/S 598 mmHg 30%
    07:00 +23°C° 0 mm 1 m/S 599 mmHg 28%
    08:00 +24°C° 0 mm 1 m/S 599 mmHg 25%
    09:00 +25°C° 0 mm 1 m/S 600 mmHg 22%
    10:00 +26°C° 0 mm 1 m/S 600 mmHg 20%
    11:00 +28°C° 0 mm 1 m/S 601 mmHg 17%
    12:00 +29°C° 0 mm 1 m/S 601 mmHg 15%
    13:00 +30°C° 0 mm 2 m/S 601 mmHg 13%
    14:00 +31°C° 0 mm 2 m/S 601 mmHg 12%
    15:00 +31°C° 0 mm 2 m/S 601 mmHg 11%
    16:00 +31°C° 0 mm 2 m/S 600 mmHg 10%
    17:00 +33°C° 0 mm 3 m/S 600 mmHg 9%
    18:00 +30°C° 0 mm 3 m/S 600 mmHg 11%
    19:00 +29°C° 0 mm 3 m/S 600 mmHg 13%
    20:00 +28°C° 0 mm 2 m/S 600 mmHg 14%
    21:00 +27°C° 0 mm 2 m/S 600 mmHg 17%
    22:00 +26°C° 0 mm 2 m/S 600 mmHg 20%
    23:00 +25°C° 0 mm 2 m/S 600 mmHg 22%

    20 August, Sonntag

    Zeit Temperatur Niederschläge Wind Luftdruck Luftfeuchtigkeit
    00:00 +24°C° 0 mm 2 m/S 599 mmHg 25%
    01:00 +24°C° 0 mm 1 m/S 599 mmHg 28%
    02:00 +23°C° 0 mm 1 m/S 599 mmHg 30%
    03:00 +22°C° 0 mm 1 m/S 599 mmHg 31%
    04:00 +22°C° 0 mm 1 m/S 599 mmHg 31%
    05:00 +21°C° 0 mm 1 m/S 598 mmHg 32%
    06:00 +22°C° 0 mm 1 m/S 599 mmHg 29%
    07:00 +23°C° 0 mm 1 m/S 599 mmHg 26%
    08:00 +24°C° 0 mm 1 m/S 600 mmHg 24%
    09:00 +25°C° 0 mm 1 m/S 600 mmHg 21%
    10:00 +26°C° 0 mm 1 m/S 601 mmHg 18%
    11:00 +27°C° 0 mm 1 m/S 601 mmHg 16%
    12:00 +28°C° 0 mm 1 m/S 601 mmHg 14%
    13:00 +29°C° 0 mm 1 m/S 601 mmHg 13%
    14:00 +30°C° 0 mm 1 m/S 601 mmHg 11%
    15:00 +31°C° 0 mm 2 m/S 600 mmHg 11%
    16:00 +31°C° 0 mm 2 m/S 600 mmHg 11%
    17:00 +31°C° 0 mm 2 m/S 600 mmHg 10%
    18:00 +30°C° 0 mm 3 m/S 600 mmHg 12%
    19:00 +29°C° 0 mm 3 m/S 600 mmHg 15%
    20:00 +28°C° 0 mm 4 m/S 599 mmHg 17%
    21:00 +27°C° 0 mm 3 m/S 599 mmHg 19%
    22:00 +26°C° 0 mm 2 m/S 599 mmHg 21%
    23:00 +25°C° 0 mm 2 m/S 599 mmHg 23%

    21 August, Montag

    Zeit Temperatur Niederschläge Wind Luftdruck Luftfeuchtigkeit
    00:00 +24°C° 0 mm 2 m/S 599 mmHg 24%
    01:00 +23°C° 0 mm 2 m/S 598 mmHg 25%
    02:00 +21°C° 0 mm 2 m/S 598 mmHg 26%
    03:00 +21°C° 0 mm 2 m/S 598 mmHg 26%
    04:00 +20°C° 0 mm 2 m/S 597 mmHg 26%
    05:00 +21°C° 0 mm 1 m/S 597 mmHg 25%
    06:00 +21°C° 0 mm 1 m/S 598 mmHg 24%
    07:00 +21°C° 0 mm 2 m/S 598 mmHg 22%
    08:00 +23°C° 0 mm 2 m/S 599 mmHg 20%
    09:00 +24°C° 0 mm 1 m/S 599 mmHg 18%
    10:00 +25°C° 0 mm 1 m/S 599 mmHg 17%
    11:00 +27°C° 0 mm 1 m/S 600 mmHg 16%
    12:00 +28°C° 0 mm 1 m/S 600 mmHg 14%
    13:00 +29°C° 0 mm 1 m/S 599 mmHg 13%
    14:00 +30°C° 0 mm 1 m/S 599 mmHg 12%
    15:00 +30°C° 0 mm 2 m/S 599 mmHg 12%
    16:00 +30°C° 0 mm 2 m/S 599 mmHg 11%
    17:00 +31°C° 0 mm 2 m/S 599 mmHg 11%
    18:00 +30°C° 0 mm 2 m/S 598 mmHg 13%
    19:00 +29°C° 0 mm 2 m/S 598 mmHg 15%
    20:00 +27°C° 0 mm 3 m/S 598 mmHg 17%
    21:00 +27°C° 0,1 mm 2 m/S 598 mmHg 20%
    22:00 +26°C° 0,1 mm 2 m/S 598 mmHg 23%
    23:00 +25°C° 0,1 mm 2 m/S 598 mmHg 26%

    22 August, Dienstag

    Zeit Temperatur Niederschläge Wind Luftdruck Luftfeuchtigkeit
    00:00 +24°C° 0,1 mm 2 m/S 597 mmHg 29%
    01:00 +23°C° 0,1 mm 1 m/S 597 mmHg 31%
    02:00 +23°C° 0,1 mm 1 m/S 597 mmHg 33%
    03:00 +22°C° 0 mm 1 m/S 597 mmHg 33%
    04:00 +21°C° 0 mm 1 m/S 596 mmHg 34%
    05:00 +21°C° 0 mm 1 m/S 596 mmHg 34%
    06:00 +22°C° 0 mm 1 m/S 597 mmHg 32%
    07:00 +23°C° 0 mm 1 m/S 598 mmHg 31%
    08:00 +23°C° 0 mm 1 m/S 598 mmHg 29%
    09:00 +25°C° 0 mm 1 m/S 599 mmHg 27%
    10:00 +26°C° 0 mm 1 m/S 599 mmHg 26%
    11:00 +27°C° 0 mm 1 m/S 599 mmHg 24%
    12:00 +28°C° 0,1 mm 1 m/S 599 mmHg 22%
    13:00 +29°C° 0,1 mm 2 m/S 599 mmHg 20%
    14:00 +30°C° 0,1 mm 2 m/S 599 mmHg 18%
    15:00 +30°C° 0,2 mm 2 m/S 599 mmHg 17%
    16:00 +31°C° 0,2 mm 2 m/S 599 mmHg 17%
    17:00 +31°C° 0,2 mm 3 m/S 599 mmHg 16%
    18:00 +30°C° 0,1 mm 3 m/S 598 mmHg 18%
    19:00 +29°C° 0,1 mm 3 m/S 598 mmHg 20%
    20:00 +28°C° 0,1 mm 4 m/S 598 mmHg 22%
    21:00 +27°C° 0 mm 3 m/S 598 mmHg 27%
    22:00 +26°C° 0 mm 3 m/S 598 mmHg 31%
    23:00 +25°C° 0 mm 3 m/S 598 mmHg 36%
    Mehr zeigen